Location: Berkeley
(37.8716°N, 122.2727°W)
Time: 13:47:53
(UTC-08:00)

Tiangong 2 - Visible Passes

Search period start: 16 December 2018 00:00
Search period end: 26 December 2018 00:00
Orbit: 383 x 391 km, 42.8° (Epoch: 16 December)

Date Brightness Start Highest point End Pass type
(mag) Time Alt. Az. Time Alt. Az. Time Alt. Az.
17 Dec 3.1 18:29:30 10° SSW 18:31:19 19° SSE 18:31:19 19° SSE visible
18 Dec 3.6 17:32:27 10° SSE 17:33:19 11° SE 17:34:12 10° SE visible
18 Dec 3.6 19:06:32 10° WSW 19:07:45 21° SW 19:07:45 21° SW visible
19 Dec 1.9 18:07:59 10° SW 18:10:57 37° SSE 18:11:51 30° ESE visible
20 Dec 1.9 18:45:42 10° WSW 18:48:10 49° W 18:48:10 49° W visible
21 Dec 1.1 17:46:53 10° WSW 17:50:02 72° SSE 17:52:10 19° ENE visible
21 Dec 4.4 19:24:02 10° WNW 19:24:26 13° WNW 19:24:26 13° WNW visible
22 Dec 1.6 18:25:01 10° W 18:28:04 45° NNW 18:28:24 43° N visible
23 Dec 1.2 17:26:02 10° WSW 17:29:11 67° NNW 17:32:20 10° ENE visible
23 Dec 3.6 19:03:23 10° WNW 19:04:36 19° NW 19:04:36 19° NW visible
24 Dec 2.0 18:04:21 10° WNW 18:07:18 35° N 18:08:32 25° NE visible
25 Dec 2.6 18:42:38 10° WNW 18:44:44 27° NNW 18:44:44 27° NNW visible
